Time,TemperatureF,DewpointF,PressureIn,WindDirection,WindDirectionDegrees,WindSpeedMPH,WindSpeedGustMPH,Humidity,HourlyPrecipIn,Conditions,Clouds,dailyrainin,SoftwareType,DateUTC
2013-03-04 00:09:00,-999.0,-99.9,30.13,North,-999,-999.0,-999.0,-999,-99.99,,,0.00,weatherlink.com 1.10,2013-03-04 05:09:00,
2013-03-04 00:24:00,-999.0,-99.9,30.13,North,-999,-999.0,-999.0,-999,-99.99,,,0.00,weatherlink.com 1.10,2013-03-04 05:24:00,
2013-03-04 00:39:00,-999.0,-99.9,30.13,North,-999,-999.0,-999.0,-999,-99.99,,,0.00,weatherlink.com 1.10,2013-03-04 05:39:00,
2013-03-04 00:54:00,-999.0,-99.9,30.13,North,-999,-999.0,-999.0,-999,-99.99,,,0.00,weatherlink.com 1.10,2013-03-04 05:54:00,
2013-03-04 01:09:00,-999.0,-99.9,30.13,North,-999,-999.0,-999.0,-999,-99.99,,,0.00,weatherlink.com 1.10,2013-03-04 06:09:00,
2013-03-04 01:24:00,-999.0,-99.9,30.12,North,-999,-999.0,-999.0,-999,-99.99,,,0.00,weatherlink.com 1.10,2013-03-04 06:24:00,
2013-03-04 01:39:00,-999.0,-99.9,30.12,North,-999,-999.0,-999.0,-999,-99.99,,,0.00,weatherlink.com 1.10,2013-03-04 06:39:00,
2013-03-04 01:54:00,-999.0,-99.9,30.12,North,-999,-999.0,-999.0,-999,-99.99,,,0.00,weatherlink.com 1.10,2013-03-04 06:54:00,
2013-03-04 02:09:00,-999.0,-99.9,30.12,North,-999,-999.0,-999.0,-999,-99.99,,,0.00,weatherlink.com 1.10,2013-03-04 07:09:00,
2013-03-04 02:24:00,-999.0,-99.9,30.11,North,-999,-999.0,-999.0,-999,-99.99,,,0.00,weatherlink.com 1.10,2013-03-04 07:24:00,
2013-03-04 02:39:00,-999.0,-99.9,30.11,North,-999,-999.0,-999.0,-999,-99.99,,,0.00,weatherlink.com 1.10,2013-03-04 07:39:00,
2013-03-04 02:54:00,-999.0,-99.9,30.10,North,-999,-999.0,-999.0,-999,-99.99,,,0.00,weatherlink.com 1.10,2013-03-04 07:54:00,
2013-03-04 03:09:00,-999.0,-99.9,30.11,North,-999,-999.0,-999.0,-999,-99.99,,,0.00,weatherlink.com 1.10,2013-03-04 08:09:00,
2013-03-04 03:24:00,-999.0,-99.9,30.10,North,-999,-999.0,-999.0,-999,-99.99,,,0.00,weatherlink.com 1.10,2013-03-04 08:24:00,
2013-03-04 03:39:00,-999.0,-99.9,30.11,North,-999,-999.0,-999.0,-999,-99.99,,,0.00,weatherlink.com 1.10,2013-03-04 08:39:00,
2013-03-04 03:54:00,-999.0,-99.9,30.11,North,-999,-999.0,-999.0,-999,-99.99,,,0.00,weatherlink.com 1.10,2013-03-04 08:54:00,
2013-03-04 04:09:00,-999.0,-99.9,30.11,North,-999,-999.0,-999.0,-999,-99.99,,,0.00,weatherlink.com 1.10,2013-03-04 09:09:00,
2013-03-04 04:24:00,-999.0,-99.9,30.11,North,-999,-999.0,-999.0,-999,-99.99,,,0.00,weatherlink.com 1.10,2013-03-04 09:24:00,
2013-03-04 04:39:00,-999.0,-99.9,30.12,North,-999,-999.0,-999.0,-999,-99.99,,,0.00,weatherlink.com 1.10,2013-03-04 09:39:00,
2013-03-04 04:54:00,-999.0,-99.9,30.12,North,-999,-999.0,-999.0,-999,-99.99,,,0.00,weatherlink.com 1.10,2013-03-04 09:54:00,
2013-03-04 05:09:00,-999.0,-99.9,30.13,North,-999,-999.0,-999.0,-999,-99.99,,,0.00,weatherlink.com 1.10,2013-03-04 10:09:00,
2013-03-04 05:24:00,-999.0,-99.9,30.13,North,-999,-999.0,-999.0,-999,-99.99,,,0.00,weatherlink.com 1.10,2013-03-04 10:24:00,
2013-03-04 05:39:00,-999.0,-99.9,30.14,North,-999,-999.0,-999.0,-999,-99.99,,,0.00,weatherlink.com 1.10,2013-03-04 10:39:00,
2013-03-04 05:54:00,-999.0,-99.9,30.15,North,-999,-999.0,-999.0,-999,-99.99,,,0.00,weatherlink.com 1.10,2013-03-04 10:54:00,
2013-03-04 06:09:00,-999.0,-99.9,30.15,North,-999,-999.0,-999.0,-999,-99.99,,,0.00,weatherlink.com 1.10,2013-03-04 11:09:00,
2013-03-04 06:24:00,-999.0,-99.9,30.15,North,-999,-999.0,-999.0,-999,-99.99,,,0.00,weatherlink.com 1.10,2013-03-04 11:24:00,
2013-03-04 06:39:00,-999.0,-99.9,30.16,North,-999,-999.0,-999.0,-999,-99.99,,,0.00,weatherlink.com 1.10,2013-03-04 11:39:00,
2013-03-04 06:54:00,-999.0,-99.9,30.16,North,-999,-999.0,-999.0,-999,-99.99,,,0.00,weatherlink.com 1.10,2013-03-04 11:54:00,
2013-03-04 07:09:00,-999.0,-99.9,30.17,North,-999,-999.0,-999.0,-999,-99.99,,,0.00,weatherlink.com 1.10,2013-03-04 12:09:00,
2013-03-04 07:24:00,-999.0,-99.9,30.18,North,-999,-999.0,-999.0,-999,-99.99,,,0.00,weatherlink.com 1.10,2013-03-04 12:24:00,
2013-03-04 07:39:00,47.6,37.0,30.19,East,94,3.0,-999.0,68,-99.99,,,0.00,weatherlink.com 1.10,2013-03-04 12:39:00,
2013-03-04 07:54:00,47.8,38.0,30.19,East,96,3.0,-999.0,69,-99.99,,,0.00,weatherlink.com 1.10,2013-03-04 12:54:00,
2013-03-04 08:09:00,48.0,37.0,30.19,East,96,5.0,-999.0,65,-99.99,,,0.00,weatherlink.com 1.10,2013-03-04 13:09:00,
2013-03-04 08:24:00,48.5,37.0,30.19,East,81,6.0,-999.0,65,-99.99,,,0.00,weatherlink.com 1.10,2013-03-04 13:24:00,
2013-03-04 08:39:00,49.4,35.0,30.19,ENE,71,9.0,-999.0,59,-99.99,,,0.00,weatherlink.com 1.10,2013-03-04 13:39:00,
2013-03-04 08:54:00,49.8,35.0,30.19,ENE,78,9.0,-999.0,58,-99.99,,,0.00,weatherlink.com 1.10,2013-03-04 13:54:00,
2013-03-04 09:09:00,50.0,36.0,30.19,ENE,73,13.0,-999.0,58,-99.99,,,0.00,weatherlink.com 1.10,2013-03-04 14:09:00,
2013-03-04 09:24:00,50.5,36.0,30.19,ENE,59,9.0,-999.0,59,-99.99,,,0.00,weatherlink.com 1.10,2013-03-04 14:24:00,
2013-03-04 09:39:00,50.5,37.0,30.19,ENE,72,9.0,-999.0,60,-99.99,,,0.00,weatherlink.com 1.10,2013-03-04 14:39:00,
2013-03-04 09:54:00,50.8,36.0,30.20,NE,56,4.0,-999.0,57,-99.99,,,0.00,weatherlink.com 1.10,2013-03-04 14:54:00,
2013-03-04 10:09:00,51.2,37.0,30.20,ENE,59,6.0,-999.0,58,-99.99,,,0.00,weatherlink.com 1.10,2013-03-04 15:09:00,
2013-03-04 10:24:00,51.7,37.0,30.19,NNE,30,6.0,-999.0,58,-99.99,,,0.00,weatherlink.com 1.10,2013-03-04 15:24:00,
2013-03-04 10:39:00,52.5,38.0,30.20,East,86,3.0,-999.0,58,-99.99,,,0.00,weatherlink.com 1.10,2013-03-04 15:39:00,
2013-03-04 10:54:00,52.8,37.0,30.19,ENE,68,3.0,-999.0,56,-99.99,,,0.00,weatherlink.com 1.10,2013-03-04 15:54:00,
2013-03-04 11:09:00,53.0,38.0,30.19,ENE,68,5.0,-999.0,57,-99.99,,,0.00,weatherlink.com 1.10,2013-03-04 16:09:00,
2013-03-04 11:24:00,53.5,38.0,30.19,SE,143,4.0,-999.0,57,-99.99,,,0.00,weatherlink.com 1.10,2013-03-04 16:24:00,
2013-03-04 11:39:00,54.5,38.0,30.18,East,79,3.0,-999.0,55,-99.99,,,0.00,weatherlink.com 1.10,2013-03-04 16:39:00,
2013-03-04 11:54:00,55.9,41.0,30.18,WNW,299,0.0,-999.0,57,-99.99,,,0.00,weatherlink.com 1.10,2013-03-04 16:54:00,
2013-03-04 12:09:00,57.0,40.0,30.17,WNW,303,4.0,-999.0,54,-99.99,,,0.00,weatherlink.com 1.10,2013-03-04 17:09:00,
2013-03-04 12:24:00,57.0,41.0,30.16,WSW,258,9.0,-999.0,55,-99.99,,,0.00,weatherlink.com 1.10,2013-03-04 17:24:00,
2013-03-04 12:39:00,57.1,42.0,30.16,WSW,250,0.0,-999.0,58,-99.99,,,0.00,weatherlink.com 1.10,2013-03-04 17:39:00,
2013-03-04 12:54:00,57.7,43.0,30.15,West,261,1.0,-999.0,59,-99.99,,,0.00,weatherlink.com 1.10,2013-03-04 17:54:00,
2013-03-04 13:09:00,57.8,44.0,30.15,West,259,1.0,-999.0,61,-99.99,,,0.00,weatherlink.com 1.10,2013-03-04 18:09:00,
2013-03-04 13:24:00,57.8,44.0,30.14,WSW,257,1.0,-999.0,61,-99.99,,,0.00,weatherlink.com 1.10,2013-03-04 18:24:00,
2013-03-04 13:39:00,58.3,44.0,30.14,West,268,1.0,-999.0,60,-99.99,,,0.00,weatherlink.com 1.10,2013-03-04 18:39:00,
2013-03-04 13:54:00,58.2,44.0,30.13,NW,313,3.0,-999.0,60,-99.99,,,0.00,weatherlink.com 1.10,2013-03-04 18:54:00,
2013-03-04 14:09:00,57.8,43.0,30.11,NNW,328,1.0,-999.0,59,-99.99,,,0.00,weatherlink.com 1.10,2013-03-04 19:09:00,
2013-03-04 14:24:00,58.4,44.0,30.11,West,277,2.0,-999.0,59,-99.99,,,0.00,weatherlink.com 1.10,2013-03-04 19:24:00,
2013-03-04 14:39:00,59.0,44.0,30.11,NW,317,2.0,-999.0,58,-99.99,,,0.00,weatherlink.com 1.10,2013-03-04 19:39:00,
2013-03-04 14:54:00,58.6,44.0,30.11,WNW,296,0.0,-999.0,59,-99.99,,,0.00,weatherlink.com 1.10,2013-03-04 19:54:00,
2013-03-04 15:09:00,58.6,44.0,30.11,WNW,294,4.0,-999.0,58,-99.99,,,0.00,weatherlink.com 1.10,2013-03-04 20:09:00,
2013-03-04 15:24:00,58.3,43.0,30.11,NNW,331,1.0,-999.0,58,-99.99,,,0.00,weatherlink.com 1.10,2013-03-04 20:24:00,
2013-03-04 15:39:00,58.8,44.0,30.11,NW,323,4.0,-999.0,59,-99.99,,,0.00,weatherlink.com 1.10,2013-03-04 20:39:00,
2013-03-04 15:54:00,59.0,44.0,30.11,West,277,1.0,-999.0,57,-99.99,,,0.00,weatherlink.com 1.10,2013-03-04 20:54:00,
2013-03-04 16:09:00,59.0,44.0,30.11,WNW,283,4.0,-999.0,58,-99.99,,,0.00,weatherlink.com 1.10,2013-03-04 21:09:00,
2013-03-04 16:24:00,59.0,44.0,30.12,West,261,4.0,-999.0,57,-99.99,,,0.00,weatherlink.com 1.10,2013-03-04 21:24:00,
2013-03-04 16:39:00,58.6,43.0,30.11,WNW,301,2.0,-999.0,57,-99.99,,,0.00,weatherlink.com 1.10,2013-03-04 21:39:00,
2013-03-04 16:54:00,59.0,44.0,30.12,West,273,1.0,-999.0,59,-99.99,,,0.00,weatherlink.com 1.10,2013-03-04 21:54:00,
2013-03-04 17:09:00,59.0,44.0,30.12,NW,306,0.0,-999.0,59,-99.99,,,0.00,weatherlink.com 1.10,2013-03-04 22:09:00,
2013-03-04 17:24:00,57.6,44.0,30.12,West,268,5.0,-999.0,60,-99.99,,,0.00,weatherlink.com 1.10,2013-03-04 22:24:00,
2013-03-04 17:39:00,56.9,44.0,30.13,West,278,1.0,-999.0,62,-99.99,,,0.00,weatherlink.com 1.10,2013-03-04 22:39:00,
2013-03-04 17:54:00,56.4,44.0,30.12,NW,323,2.0,-999.0,63,-99.99,,,0.00,weatherlink.com 1.10,2013-03-04 22:54:00,
2013-03-04 18:09:00,56.2,44.0,30.13,NNW,331,5.0,-999.0,64,-99.99,,,0.00,weatherlink.com 1.10,2013-03-04 23:09:00,
2013-03-04 18:24:00,56.0,44.0,30.13,NW,323,0.0,-999.0,65,-99.99,,,0.00,weatherlink.com 1.10,2013-03-04 23:24:00,
2013-03-04 18:39:00,-999.0,-99.9,30.13,North,-999,-999.0,-999.0,-999,-99.99,,,0.00,weatherlink.com 1.10,2013-03-04 23:39:00,
2013-03-04 18:54:00,-999.0,-99.9,30.13,North,-999,-999.0,-999.0,-999,-99.99,,,0.00,weatherlink.com 1.10,2013-03-04 23:54:00,
2013-03-04 19:09:00,-999.0,-99.9,30.12,North,-999,-999.0,-999.0,-999,-99.99,,,0.00,weatherlink.com 1.10,2013-03-05 00:09:00,
2013-03-04 19:24:00,-999.0,-99.9,30.12,North,-999,-999.0,-999.0,-999,-99.99,,,0.00,weatherlink.com 1.10,2013-03-05 00:24:00,
2013-03-04 19:39:00,-999.0,-99.9,30.12,North,-999,-999.0,-999.0,-999,-99.99,,,0.00,weatherlink.com 1.10,2013-03-05 00:39:00,
2013-03-04 19:54:00,-999.0,-99.9,30.12,North,-999,-999.0,-999.0,-999,-99.99,,,0.00,weatherlink.com 1.10,2013-03-05 00:54:00,
2013-03-04 20:09:00,-999.0,-99.9,30.12,North,-999,-999.0,-999.0,-999,-99.99,,,0.00,weatherlink.com 1.10,2013-03-05 01:09:00,
2013-03-04 20:24:00,-999.0,-99.9,30.12,North,-999,-999.0,-999.0,-999,-99.99,,,0.00,weatherlink.com 1.10,2013-03-05 01:24:00,
2013-03-04 20:39:00,-999.0,-99.9,30.12,North,-999,-999.0,-999.0,-999,-99.99,,,0.00,weatherlink.com 1.10,2013-03-05 01:39:00,
2013-03-04 20:54:00,-999.0,-99.9,30.12,North,-999,-999.0,-999.0,-999,-99.99,,,0.00,weatherlink.com 1.10,2013-03-05 01:54:00,
2013-03-04 21:09:00,-999.0,-99.9,30.12,North,-999,-999.0,-999.0,-999,-99.99,,,0.00,weatherlink.com 1.10,2013-03-05 02:09:00,
2013-03-04 21:24:00,-999.0,-99.9,30.12,North,-999,-999.0,-999.0,-999,-99.99,,,0.00,weatherlink.com 1.10,2013-03-05 02:24:00,
2013-03-04 21:39:00,-999.0,-99.9,30.14,North,-999,-999.0,-999.0,-999,-99.99,,,0.00,weatherlink.com 1.10,2013-03-05 02:39:00,
2013-03-04 21:54:00,-999.0,-99.9,30.14,North,-999,-999.0,-999.0,-999,-99.99,,,0.00,weatherlink.com 1.10,2013-03-05 02:54:00,
2013-03-04 22:09:00,-999.0,-99.9,30.14,North,-999,-999.0,-999.0,-999,-99.99,,,0.00,weatherlink.com 1.10,2013-03-05 03:09:00,
2013-03-04 22:24:00,-999.0,-99.9,30.14,North,-999,-999.0,-999.0,-999,-99.99,,,0.00,weatherlink.com 1.10,2013-03-05 03:24:00,
2013-03-04 22:39:00,-999.0,-99.9,30.14,North,-999,-999.0,-999.0,-999,-99.99,,,0.00,weatherlink.com 1.10,2013-03-05 03:39:00,
2013-03-04 22:54:00,-999.0,-99.9,30.14,North,-999,-999.0,-999.0,-999,-99.99,,,0.00,weatherlink.com 1.10,2013-03-05 03:54:00,
2013-03-04 23:09:00,-999.0,-99.9,30.13,North,-999,-999.0,-999.0,-999,-99.99,,,0.00,weatherlink.com 1.10,2013-03-05 04:09:00,
2013-03-04 23:24:00,-999.0,-99.9,30.13,North,-999,-999.0,-999.0,-999,-99.99,,,0.00,weatherlink.com 1.10,2013-03-05 04:24:00,
2013-03-04 23:39:00,-999.0,-99.9,30.12,North,-999,-999.0,-999.0,-999,-99.99,,,0.00,weatherlink.com 1.10,2013-03-05 04:39:00,
2013-03-04 23:54:00,-999.0,-99.9,30.12,North,-999,-999.0,-999.0,-999,-99.99,,,0.00,weatherlink.com 1.10,2013-03-05 04:54:00,